User: anonymous   Login
Location: Unspecified
(0.0000°N, 0.0000°E)
Time: 17:25:20
(UTC+00:00)
Language:

HORYU 2 - Orbit

View from above orbital plane
View from above orbital plane
View from above satellite
View from above satellite

Ground track
Ground track

The orbit is defined by the following mean orbital elements,

1 38340U          26106.29142900 +.00000000 +00000-0 +19895-3 0 00008
2 38340  98.2076 236.7470 0008509  33.2188 326.9562 14.90689635    02
Epoch (UTC): 16 April 2026 06:59:39
Eccentricity: 0.0008509
inclination: 98.2076°
perigee height: 590 km
apogee height: 602 km
right ascension of ascending node: 236.7470°
argument of perigee: 33.2188°
revolutions per day: 14.90689635
mean anomaly at epoch: 326.9562°

The dashed part of the orbit path shows where the satellite is in the earth's shadow,  

DLR